Regional Weather Roundup
Issued by NWS

Home | Current Version | Previous Version | Text Only | Print | Product List | Glossary Off
Versions: 1 2 3 4 5 6 7 8 9 10 11 12 13 14 15 16 17 18 19 20 21 22 23 24 25 26 27 28 29 30 31 32 33 34 35 36 37 38 39 40 41 42 43 44 45 46 47 48 49 50

000
ASUS45 KABQ 191210
RWRNM
WEATHER ROUNDUP FOR NEW MEXICO
NATIONAL WEATHER SERVICE ALBUQUERQUE NM
600 AM MDT FRI SEP 19 2014

NOTE: "FAIR" MEANS FEW OR NO CLOUDS BELOW 12,000 FEET AGL WITH NO
       SIGNIFICANT WEATHER OR OBSTRUCTIONS TO VISION.

      THIS PRODUCT IS RELEASED AS TWO VERSIONS.  ONE VERSION NEAR
      THE TOP OF THE HOUR CONTAINING PRELIMINARY DATA FROM ALBUQUERQUE
      AND OTHER STATIONS.  A FINAL VERSION WITH ADDITIONAL DATA IS
      ISSUED ABOUT 10 MINUTES AFTER THE HOUR.

NMZ501-503-504-510>518-191300-
NORTHWEST PLATEAU/NORTHCENTRAL MOUNTAINS

CITY           SKY/WX    TMP DP  RH WIND       PRES   REMARKS
FARMINGTON     CLEAR     57  41  55 E7        30.06R
6HR MIN TEMP:  55; 6HR MAX TEMP:  65;

LOS ALAMOS     MOCLDY    57  49  74 SW6       30.19S
SANTA FE       CLOUDY    59  52  77 CALM      30.14R
6HR MIN TEMP:  56; 6HR MAX TEMP:  63;

TAOS           CLOUDY    54  48  82 NE3       30.20R
ANGEL FIRE     FOG       44  42  93 CALM      30.28S VSB 1/4

$$
NMZ402-403-502-505>509-191300-
WESTCENTRAL MOUNTAINS/SOUTHWEST MOUNTAINS

CITY           SKY/WX    TMP DP  RH WIND       PRES   REMARKS
GALLUP         CLEAR     47  43  86 CALM      30.13S
6HR MIN TEMP:  46; 6HR MAX TEMP:  60;

GRANTS         CLEAR     46  41  81 NW6       30.16R
SILVER CITY    CLOUDY    61  61 100 NW3       30.06S

$$
NMZ407-409-411-412-191300-
SOUTHERN DESERTS

CITY           SKY/WX    TMP DP  RH WIND       PRES   REMARKS
LORDSBURG      FAIR      63  61  94 MISG      29.99S
DEMING         CLOUDY    61  61 100 S6        30.00R FOG
6HR MIN TEMP:  61; 6HR MAX TEMP:  65;

LAS CRUCES     MOCLDY    64  64  97 N5        29.99S
HOLLOMAN AFB   MOCLDY    64  59  82 N3        29.96S
ALAMOGORDO     RAIN      64  64 100 N6        29.98R
T OR C         PTCLDY    61  59  93 N5        30.01R
6HR MIN TEMP:  61; 6HR MAX TEMP:  64;


$$
NMZ519>523-191300-
CENTRAL VALLEYS/CENTRAL HIGHLANDS

CITY           SKY/WX    TMP DP  RH WIND       PRES   REMARKS
ALBUQUERQUE    CLOUDY    65  57  75 N7        30.08R
6HR MIN TEMP:  65; 6HR MAX TEMP:  68;

DOUBLE EAGLE   CLOUDY    57  55  94 NW3       30.11R
MORIARTY ARPT  CLOUDY    58  55  88 CALM      30.14S
6HR MIN TEMP:  56; 6HR MAX TEMP:  61;

CLINES CORNERS CLOUDY    57  55  93 E3        30.16S
6HR MIN TEMP:  57; 6HR MAX TEMP:  58;

BELEN          PTSUNNY   60  58  94 N6        30.07R
6HR MIN TEMP:  60; 6HR MAX TEMP:  66;

SOCORRO        CLOUDY    62  60  93 W3        30.04R
6HR MIN TEMP:  60; 6HR MAX TEMP:  64;


$$
NMZ524>526-539-540-191300-
SOUTHCENTRAL MOUNTAINS

CITY           SKY/WX    TMP DP  RH WIND       PRES   REMARKS
RUIDOSO        NOT AVBL

$$
NMZ527>531-191300-
NORTHEAST HIGHLANDS/NORTHEAST PLAINS

CITY           SKY/WX    TMP DP  RH WIND       PRES   REMARKS
LAS VEGAS      MOCLDY    54  53  97 S5        30.17S FOG
6HR MIN TEMP:  54; 6HR MAX TEMP:  58; 6HR PCP:  0.03;

RATON          CLOUDY    59  57  93 S8        30.13R
6HR MIN TEMP:  59; 6HR MAX TEMP:  61;

CLAYTON        CLOUDY    62  58  86 S9        30.07S
6HR MIN TEMP:  62; 6HR MAX TEMP:  63;


$$
NMZ532>537-191300-
EASTCENTRAL PLAINS

CITY           SKY/WX    TMP DP  RH WIND       PRES   REMARKS
TUCUMCARI      MOCLDY    63  59  87 SE6       30.03S
6HR MIN TEMP:  63; 6HR MAX TEMP:  67;

CANNON AFB     MOCLDY    64  63  94 E1        30.04S
6HR MIN TEMP:  64; 6HR MAX TEMP:  65;

CLOVIS AIRPORT   N/A     64  63  94 E3        30.07S

$$
NMZ028-029-538-191300-
SOUTHEAST PLAINS

CITY           SKY/WX    TMP DP  RH WIND       PRES   REMARKS
ROSWELL        CLOUDY    68  66  93 NE3       29.96S
6HR MIN TEMP:  66; 6HR MAX TEMP:  68; 6HR PCP:  0.55;

CARLSBAD       LGT RAIN  69  50  51 E13G18    29.93R
6HR MIN TEMP:  67; 6HR MAX TEMP:  70;

HOBBS          LGT RAIN  66  66 100 E8        30.00  FOG


$$



USA.gov is the U.S. government's official web portal to all federal, state and local government web resources and services.